Flag for Germany Weather past 2 weeks in Erlangen, Bavaria, Germany

Now
43 °F

Broken clouds.


Feels Like: 35 °F
Forecast: 36 / 52 °F
Wind: 16 mph from West

Location: Nuernberg

Current Time: Mar 27, 2015 at 9:54:48 AM

Latest Report: Mar 27, 2015 at 9:20 AM


Visibility: N/A

Pressure: 29.98 "Hg

Humidity: 81%

Dew point: 37 °F

Location of ErlangenLocation

Historic Weather in Erlangen — Graph

°F

Erlangen temperature yesterday

Maximum temperature yesterday: 50 °F (at 12:20 AM)
Minimum temperature yesterday: 41 °F (at 11:20 PM)
Average temperature yesterday: 44 °F

Past Weeks' High & Low Weather Summary

 TemperatureHumidityPressure
High64 °F (Mar 17, 2:50 PM)100% (Mar 15, 6:50 AM)30.42 "Hg (Mar 15, 6:50 AM)
Low27 °F (Mar 21, 2:20 AM)21% (Mar 20, 4:20 PM)29.56 "Hg (Mar 25, 2:50 PM)
Average43 °F69%30.08 "Hg
* Reported Mar 12 8:20 AM — Mar 27 8:20 AM, Erlangen, Weather by CustomWeather, © 2015

Note: Actual official high and low records may vary slightly from our data, if they occured in-between our weather recording intervals... More about our weather records

Advertising

Erlangen weather history for previous 24 hours

 ConditionsComfort  
Time TempWeatherWind HumidityBarometerVisibility
8:20 AM
Fri, Mar 27
43 °FBroken clouds.9 mph87%29.98 "HgN/A
7:50 AM43 °FBroken clouds.10 mph87%29.95 "HgN/A
7:20 AM41 °FScattered clouds.7 mph87%29.95 "HgN/A
6:50 AM41 °FBroken clouds.8 mph87%29.92 "HgN/A
6:20 AM41 °FPartly sunny.6 mph93%29.92 "HgN/A
5:50 AM41 °FPassing clouds.8 mph93%29.92 "HgN/A
5:20 AM41 °FPartly cloudy.3 mph87%29.89 "HgN/A
3:50 AM41 °FLight rain. Passing clouds.8 mph87%29.86 "HgN/A
3:20 AM41 °FPassing clouds.5 mph87%29.86 "HgN/A
2:50 AM41 °FPassing clouds.7 mph87%29.86 "HgN/A
2:20 AM41 °FPassing clouds.8 mph87%29.86 "HgN/A
1:50 AM41 °FPassing clouds.7 mph87%29.86 "Hg5 mi
1:20 AM39 °FLight rain. Partly cloudy.7 mph93%29.86 "Hg4 mi
12:50 AM41 °FLight rain. Partly cloudy.12 mph87%29.86 "Hg4 mi
12:20 AM41 °FLight rain. Partly cloudy.8 mph87%29.86 "Hg6 mi
11:50 PM
Thu, Mar 26
41 °FLight rain. Passing clouds.7 mph87%29.86 "Hg6 mi
11:20 PM41 °FLight rain. Overcast.13 mph81%29.86 "HgN/A
10:20 PM43 °FOvercast.5 mph81%29.83 "Hg5 mi
9:50 PM43 °FOvercast.5 mph81%29.83 "Hg5 mi
9:20 PM43 °FOvercast.6 mph81%29.83 "Hg5 mi
8:50 PM43 °FOvercast.6 mph81%29.83 "Hg5 mi
8:20 PM43 °FLight rain. Clear.6 mph81%29.83 "HgN/A
7:50 PM45 °FPassing clouds.6 mph76%29.80 "HgN/A
7:20 PM45 °FOvercast.6 mph76%29.80 "HgN/A
6:50 PM45 °FLight rain. Mostly cloudy.7 mph76%29.80 "HgN/A
6:20 PM45 °FLight rain. Mostly cloudy.9 mph76%29.80 "Hg6 mi
5:50 PM45 °FLight rain. Overcast.10 mph76%29.80 "Hg6 mi
5:20 PM46 °FOvercast.10 mph71%29.80 "Hg6 mi
4:50 PM46 °FMostly cloudy.6 mph71%29.77 "Hg6 mi
4:20 PM46 °FOvercast.7 mph71%29.77 "Hg6 mi
3:50 PM46 °FOvercast.5 mph71%29.77 "Hg6 mi
3:20 PM46 °FOvercast.8 mph71%29.77 "Hg4 mi
2:50 PM45 °FOvercast.8 mph76%29.77 "Hg4 mi
2:20 PM45 °FOvercast.8 mph76%29.77 "Hg4 mi
1:50 PM45 °FOvercast.9 mph76%29.80 "Hg4 mi
1:20 PM45 °FOvercast.10 mph76%29.80 "Hg4 mi
12:50 PM45 °FOvercast.7 mph76%29.80 "Hg4 mi
12:20 PM43 °FOvercast.12 mph81%29.80 "Hg4 mi
11:50 AM43 °FOvercast.13 mph81%29.80 "Hg4 mi
11:20 AM43 °FOvercast.14 mph81%29.77 "Hg4 mi
10:50 AM45 °FOvercast.12 mph76%29.77 "Hg4 mi
10:20 AM43 °FFog.10 mph81%29.77 "Hg3 mi
9:50 AM43 °FFog.10 mph81%29.77 "Hg3 mi
9:20 AM43 °FFog.13 mph87%29.77 "Hg3 mi
Weather by CustomWeather, © 2015

See weather overviewHow to use our weather pages